SCP
0 0 0 0 0 0 0 0 0 0 0 0 0 0 0 0 0 0 0 0 0 0 0 0 0 0 0 0 0 0 0 0 0 0 0 0 0 0 0 0 0 0 0 0 0 0 0 0 0
0 0 0 0 0 0 0 0 0 0 0 0 0 0 0 0 0 0 0 0 0 0 0 0 0 0 0 0 0 0 0 0 0 0 0 0 0 0 0 0 0 0 0 0 0 0 0 0 0
0 0 0 0 0 0 0 0 0 0 0 0 0 0 0 0 0 0 0 0 0 0 0 0 0 0 0 0 0 0 0 0 0 0 0 0 0 0 0 0 0 0 0 0 0 0 0 0 0
0 0 0 0 0 0 0 0 0 0 0 0 0 0 0 0 0 0 0 0 0 0 0 0 0 0 0 0 0 0 0 0 0 0 0 0 0 0 0 0 0 0 0 0 0 0 0 0 0
0 0 0 0 0 0 0 0 0 0 0 0 0 0 0 0 0 0 0 0 0 0 0 0 0 0 0 0 0 0 0 0 0 0 0 0 0 0 0 0 0 0 0 0 0 0 0 0 0
0 0 0 0 0 0 0 0 0 0 0 0 0 0 0 0 0 0 0 0 0 0 0 0 0 0 0 0 0 0 0 0 0 0 0 0 0 0 0 0 0 0 0 0 0 0 0 0 0
0 0 0 0 0 0 0 0 0 0 0 0 0 0 0 0 0 0 0 0 0 0 0 0 0 0 0 0 0 0 0 0 0 0 0 0 0 0 0 0 0 0 0 0 0 0 0 0 0
0 0 0 0 0 0 0 0 0 0 0 0 0 0 0 0 0 0 0 0 0 0 0 0 0 0 0 0 0 0 0 0 0 0 0 0 0 0 0 0 0 0 0 0 0 0 0 0 0
0 0 0 0 0 0 0 0 0 0 0 0 0 0 0 0 0 0 0 0 0 0 0 0 0 0 0 0 0 0 0 0 0 0 0 0 0 0 0 0 0 0 0 0 0 0 0 0 0
0 0 0 0 0 0 0 0 0 0 0 0 0 0 0 0 0 0 0 0 0 0 0 0 0 0 0 0 0 0 0 0 0 0 0 0 0 0 0 0 0 0 0 0 0 0 0 0 0
0 0 0 0 0 0 0 0 0 0 0 0 0 0 0 0 0 0 0 0 0 0 0 0 0 0 0 0 0 0 0 0 0 0 0 0 0 0 0 0 0 0 0 0 0 0 0 0 0
0 0 0 0 0 0 0 0 0 0 0 0 0 0 0 0 0 0 0 0 0 0 0 0 0 0 0 0 0 0 0 0 0 0 0 0 0 0 0 0 0 0 0 0 0 0 0 0 0
0 0 0 0 0 0 0 0 0 0 0 0 0 0 0 0 0 0 0 0 0 0 0 0 0 0 0 0 0 0 0 0 0 0 0 0 0 0 0 0 0 0 0 0 0 0 0 0 0
0 0 0 0 0 0 0 0 0 0 0 0 0 0 0 0 0 0 0 0 0 0 0 0 0 0 0 0 0 0 0 0 0 0 0 0 0 0 0 0 0 0 0 0 0 0 0 0 0
0 0 0 0 0 0 0 0 0 0 0 0 0 0 0 0 0 0 0 0 0 0 0 0 0 0 0 0 0 0 0 0 0 0 0 0 0 0 0 0 0 0 0 0 0 0 0 0 0
0 0 0 0 0 0 0 0 0 0 0 0 0 0 0 0 0 0 0 0 0 0 0 0 0 0 0 0 0 0 0 0 0 0 0 0 0 0 0 0 0 0 0 0 0 0 0 0 0
0 0 0 0 0 0 0 0 0 0 0 0 0 0 0 0 0 0 0 0 0 0 0 0 0 0 0 0 0 0 0 0 0 0 0 0 0 0 0 0 0 0 0 0 0 0 0 0 0
0 0 0 0 0 0 0 0 0 0 0 0 0 0 0 0 0 0 0 0 0 0 0 0 0 0 0 0 0 0 0 0 0 0 0 0 0 0 0 0 0 0 0 0 0 0 0 0 0
0 0 0 0 0 0 0 0 0 0 0 0 0 0 0 0 0 0 0 0 0 0 0 0 0 0 0 0 0 0 0 0 0 0 0 0 0 0 0 0 0 0 0 0 0 0 0 0 0
0 0 0 0 0 0 0 0 0 0 0 0 0 0 0 0 0 0 0 0 0 0 0 0 0 0 0 0 0 0 0 0 0 0 0 0 0 0 0 0 0 0 0 0 0 0 0 0 0
0 0 0 0 0 0 0 0 0 0 0 0 0 0 0 0 0 0 0 0 0 0 0 0 0 0 0 0 0 0 0 0 0 0 0 0 0 0 0 0 0 0 0 0 0 0 0 0 0
0 0 0 0 0 0 0 0 0 0 0 0 0 0 0 0 0 0 0 0 0 0 0 0 0 0 0 0 0 0 0 0 0 0 0 0 0 0 0 0 0 0 0 0 0 0 0 0 0
0 0 0 0 0 0 0 0 0 0 0 0 0 0 0 0 0 0 0 0 0 0 0 0 0 0 0 0 0 0 0 0 0 0 0 0 0 0 0 0 0 0 0 0 0 0 0 0 0
0 0 0 0 0 0 0 0 0 0 0 0 0 0 0 0 0 0 0 0 0 0 0 0 0 0 0 0 0 0 0 0 0 0 0 0 0 0 0 0 0 0 0 0 0 0 0 0 0
0 0 0 0 0 0 0 0 0 0 0 0 0 0 0 0 0 0 0 0 0 0 0 0 0 0 0 0 0 0 0 0 0 0 0 0 0 0 0 0 0 0 0 0 0 0 0 0 0
0 0 0 0 0 0 0 0 0 0 0 0 0 0 0 0 0 0 0 0 0 0 0 0 0 0 0 0 0 0 0 0 0 0 0 0 0 0 0 0 0 0 0 0 0 0 0 0 0
0 0 0 0 0 0 0 0 0 0 0 0 0 0 0 0 0 0 0 0 0 0 0 0 0 0 0 0 0 0 0 0 0 0 0 0 0 0 0 0 0 0 0 0 0 0 0 0 0
0 0 0 0 0 0 0 0 0 0 0 0 0 0 0 0 0 0 0 0 0 0 0 0 0 0 0 0 0 0 0 0 0 0 0 0 0 0 0 0 0 0 0 0 0 0 0 0 0
0 0 0 0 0 0 0 0 0 0 0 0 0 0 0 0 0 0 0 0 0 0 0 0 0 0 0 0 0 0 0 0 0 0 0 0 0 0 0 0 0 0 0 0 0 0 0 0 0
0 0 0 0 0 0 0 0 0 0 0 0 0 0 0 0 0 0 0 0 0 0 0 0 0 0 0 0 0 0 0 0 0 0 0 0 0 0 0 0 0 0 0 0 0 0 0 0 0
Wind_Speed
10 11 7 2 2 0 4 5 6 5 6 7 7 7 10 12 9 7 2 4 7 9 10 9 8 8 8 8 9 9 8 8 8 8 9 8 8 8 8 8 8 8 9 9 9 10 9 9 9
10 6 3 3 1 1 5 5 7 8 6 4 5 8 10 11 10 8 4 4 7 9 10 9 8 8 8 8 8 8 8 8 8 8 8 8 7 7 8 8 9 9 9 9 9 9 9 9 9
12 7 3 2 1 4 6 6 7 7 4 4 6 9 9 7 8 6 5 5 7 10 10 10 9 8 8 8 8 8 9 8 8 8 8 8 8 9 8 8 9 9 9 9 10 9 9 9 9
6 3 3 1 4 7 7 6 5 5 5 5 5 8 9 8 6 7 6 6 8 9 11 9 9 9 8 9 9 9 9 8 8 8 8 8 8 9 9 9 9 10 9 10 10 10 10 9 9
4 2 1 1 5 7 6 6 4 5 5 6 8 10 9 8 9 9 6 6 7 9 10 10 10 9 9 9 9 9 9 9 9 9 9 9 9 9 10 9 10 10 10 10 10 9 10 9 9
2 2 1 3 6 6 5 4 4 6 5 6 7 9 8 8 7 6 6 5 7 8 10 10 10 10 10 9 9 9 9 9 9 9 9 9 9 9 9 9 9 10 9 9 9 9 9 8 8
2 2 1 3 5 4 4 4 4 4 5 5 5 8 8 8 6 5 6 6 6 7 8 8 8 8 9 9 9 8 8 7 7 8 8 8 9 9 9 9 9 9 9 9 8 8 8 7 7
2 2 1 2 4 4 4 3 4 4 6 5 4 6 8 8 7 6 6 6 5 5 5 6 7 7 7 6 8 7 6 6 5 6 6 8 8 8 8 8 9 9 9 9 8 7 7 6 5
2 1 1 2 3 4 3 2 4 4 5 6 7 11 11 11 9 7 5 5 4 4 3 4 5 5 6 6 7 7 5 4 4 4 4 4 3 4 5 8 9 9 9 8 8 7 6 5 3
1 1 3 3 3 3 3 2 3 3 5 6 8 11 11 10 8 7 6 6 5 3 3 3 4 5 5 4 4 3 3 3 2 3 3 2 3 4 6 7 8 8 8 7 6 5 3 1 1
1 0 2 2 3 2 2 2 2 2 3 5 8 10 10 9 7 7 6 6 5 4 3 3 3 4 4 3 3 1 2 2 1 2 4 3 3 3 3 3 4 4 4 3 4 3 1 2 2
1 0 1 2 3 2 1 1 2 2 2 5 7 10 9 8 6 5 6 7 6 5 4 3 3 4 4 4 3 2 2 2 2 2 4 3 2 2 2 2 2 2 2 2 2 2 3 3 4
2 1 1 1 1 1 1 1 1 2 3 6 8 9 7 7 6 5 5 7 7 6 4 4 3 4 4 4 2 3 2 2 2 2 2 4 2 2 2 2 2 2 2 2 3 3 4 4 5
1 1 2 2 2 2 1 1 3 3 5 6 7 7 7 6 5 5 5 6 7 6 5 4 3 3 4 3 3 3 3 2 2 1 2 4 3 3 3 3 3 2 2 2 2 4 4 4 4
3 3 3 3 4 3 2 3 3 5 6 7 7 6 7 6 5 5 5 5 6 6 6 5 4 4 4 4 3 3 2 3 2 2 2 3 3 3 3 2 2 2 2 3 3 4 3 4 4
6 4 4 4 5 5 4 3 3 6 6 6 6 7 6 6 5 5 5 6 5 5 6 6 4 5 5 4 3 3 3 3 2 2 2 3 4 4 3 3 2 2 2 2 2 3 3 3 3
6 5 5 4 5 4 4 3 4 6 7 6 6 7 7 7 7 5 5 5 5 5 6 6 5 4 5 4 3 3 3 2 2 2 2 2 4 4 3 2 1 2 2 2 2 2 3 3 3
5 5 4 3 4 4 5 4 5 6 7 7 7 8 8 7 7 7 6 5 5 5 5 7 6 4 5 3 3 3 3 2 2 2 2 3 3 4 3 2 2 3 2 2 2 3 3 2 2
6 6 5 3 2 3 5 5 5 6 6 6 6 6 8 8 7 7 6 6 5 4 5 6 6 5 4 3 2 2 2 1 2 2 3 2 2 3 3 2 2 2 2 2 2 3 2 2 2
8 7 6 3 2 3 5 6 4 6 7 6 6 7 7 7 8 8 7 6 6 5 4 5 5 4 5 3 3 3 3 2 2 2 2 2 2 2 3 3 2 2 2 2 2 2 1 1 1
8 6 5 5 4 6 6 6 5 6 6 6 5 5 6 7 8 9 7 6 6 5 5 4 5 5 5 4 3 2 2 1 2 2 1 1 2 2 2 2 2 2 2 2 1 1 2 1 1
6 3 5 6 7 5 6 4 3 6 6 6 5 4 5 6 7 7 6 6 5 4 4 4 4 5 5 5 3 3 3 2 3 2 2 2 2 2 2 1 2 2 2 2 2 2 1 1 0
6 5 7 8 8 9 8 6 3 5 5 6 6 5 4 5 6 7 6 6 5 5 4 3 4 4 4 4 4 3 2 2 2 3 4 3 2 2 3 2 1 2 2 2 2 2 1 1 1
6 7 9 8 6 8 8 5 1 2 3 5 5 5 5 5 6 6 7 6 4 5 4 4 4 4 4 4 4 4 3 3 3 3 3 2 2 2 3 2 1 2 1 2 2 2 1 0 1
6 6 3 4 5 5 5 3 2 3 3 3 4 5 5 5 6 5 6 6 5 5 5 4 4 4 4 4 4 4 4 3 3 3 3 3 2 2 2 2 2 2 1 2 2 2 2 2 1
6 7 4 4 3 3 3 2 4 5 4 4 4 4 5 5 5 5 5 5 5 5 5 5 5 4 4 3 3 3 4 2 2 3 3 3 2 3 3 3 3 3 2 2 2 1 1 1 1
7 6 5 6 7 6 3 2 4 4 5 4 4 3 3 4 4 5 5 5 5 5 4 4 4 4 4 3 3 3 3 3 3 3 3 3 3 3 3 4 4 3 3 3 2 2 2 1 1
7 7 5 4 4 4 4 3 2 3 4 3 3 2 2 3 4 4 5 5 4 4 4 3 3 3 3 3 3 2 2 3 3 3 3 3 3 3 3 4 4 4 3 3 2 1 1 2 1
6 6 5 4 4 3 4 2 3 4 3 2 2 2 2 4 3 4 4 4 4 5 4 3 3 2 2 2 2 2 1 2 2 2 3 3 3 3 3 4 3 4 4 4 3 3 3 2 2
6 6 5 4 5 4 3 1 3 5 4 3 2 2 2 4 4 4 4 4 4 5 4 3 3 3 3 2 1 2 2 2 2 2 2 3 3 3 3 3 3 3 3 3 4 4 4 4 3
Wind_Direction
265 249 245 257 263 233 65 66 72 65 55 45 44 54 58 50 49 83 113 75 86 94 101 93 79 72 63 57 55 55 57 63 68 70 69 69 70 73 75 76 77 77 79 80 79 77 77 78 79
276 273 267 243 242 90 74 75 72 65 66 64 61 61 72 65 73 96 98 81 90 93 94 90 85 75 65 59 58 59 62 68 72 72 71 71 72 74 78 79 79 79 81 81 78 76 74 76 79
267 267 263 255 15 64 79 77 80 80 74 56 67 60 57 64 74 95 105 98 89 90 92 92 88 79 70 64 60 60 64 70 76 80 76 72 74 75 75 82 86 84 83 82 78 75 72 73 76
267 260 251 285 58 67 80 89 95 97 85 68 70 80 73 60 81 101 106 101 97 98 100 100 95 88 79 71 66 63 63 74 83 85 84 79 79 80 77 80 86 84 82 82 77 74 73 72 72
245 257 256 91 78 75 73 79 84 80 79 72 76 91 89 79 90 101 101 97 100 103 107 108 103 97 87 78 72 68 65 73 84 88 86 83 84 84 82 83 86 86 84 83 79 74 72 68 67
270 254 249 86 89 87 87 82 73 67 75 84 97 101 98 106 101 106 107 97 98 105 110 115 115 107 96 86 80 75 71 74 80 87 89 90 88 87 86 85 88 88 89 89 84 77 73 71 69
278 306 50 89 104 105 88 69 67 72 68 57 79 104 113 114 110 108 101 93 88 97 113 126 131 123 111 101 93 88 82 82 84 88 94 95 94 95 93 88 93 95 95 95 92 86 79 74 71
299 307 8 82 102 96 91 91 78 65 81 65 51 92 118 124 124 117 107 101 103 102 109 123 134 135 135 126 116 112 107 104 103 106 105 108 110 106 102 97 97 102 101 100 98 96 96 88 79
282 286 31 55 87 97 103 99 93 84 83 79 74 86 111 126 130 127 122 116 110 108 111 122 126 129 131 134 133 141 140 140 136 136 132 132 124 117 111 106 106 110 112 110 108 110 110 106 87
226 24 31 51 76 92 111 100 103 122 109 109 105 106 117 130 137 140 137 132 128 128 125 121 125 122 122 117 129 144 142 149 165 145 141 135 102 95 104 115 119 124 128 128 126 129 136 135 99
147 58 13 54 84 94 104 94 90 96 106 118 128 129 133 143 147 149 147 138 134 129 112 103 106 108 110 105 108 98 105 119 120 99 109 98 97 105 107 120 131 132 142 143 142 157 132 86 77
170 89 24 46 70 99 103 98 77 74 90 108 121 132 141 148 148 147 143 133 127 116 107 90 89 97 100 99 103 105 87 89 83 78 90 91 85 87 91 83 85 100 97 89 94 100 84 72 71
185 158 147 114 104 142 188 158 140 118 125 120 126 134 145 146 144 141 139 129 127 120 120 107 90 85 95 95 101 99 87 79 98 86 99 104 92 86 86 83 75 77 82 84 81 75 68 60 56
199 195 215 186 181 199 210 236 191 161 151 145 143 142 145 143 146 146 145 135 136 135 133 116 108 101 101 105 100 92 101 94 79 75 89 99 94 89 86 81 74 68 76 88 94 96 86 74 68
214 216 241 220 204 194 239 248 206 172 161 156 155 150 146 148 159 155 141 136 137 139 135 127 125 101 88 86 88 95 91 89 75 67 73 93 100 94 91 92 87 82 72 80 81 86 90 95 87
235 225 224 229 214 190 219 246 182 164 165 163 161 153 148 156 169 158 146 141 140 138 135 134 130 114 101 91 85 91 86 78 77 63 58 80 87 86 83 89 84 87 74 75 86 96 88 82 78
236 243 238 216 203 199 223 239 176 175 173 175 173 163 163 167 173 161 154 148 147 140 135 129 120 119 113 107 103 86 92 87 84 70 56 70 87 91 83 91 100 93 84 81 87 82 94 95 87
253 256 254 232 205 200 230 237 192 190 185 187 178 174 171 174 174 165 161 150 141 137 138 134 130 134 120 114 106 91 84 90 87 82 70 65 81 94 94 94 86 82 80 73 82 86 83 100 113
283 288 286 268 205 215 243 250 202 187 186 188 179 179 174 174 172 162 155 145 143 141 138 133 140 148 129 122 119 118 115 111 98 97 95 85 78 97 100 88 82 81 91 100 105 104 99 88 108
275 273 273 260 218 251 261 259 216 180 184 188 189 184 180 173 167 159 158 154 157 154 149 146 146 148 135 134 136 139 131 134 121 106 106 115 97 92 104 108 100 90 83 78 86 91 106 145 178
265 266 284 301 287 254 256 255 221 180 181 179 191 188 179 172 167 159 163 158 156 155 155 154 154 147 137 140 129 121 107 125 115 117 114 131 110 97 94 102 118 130 122 112 113 126 115 163 288
274 286 286 279 276 268 248 267 222 168 171 181 182 189 182 167 158 153 154 153 156 154 153 155 156 146 140 138 141 146 157 167 157 149 152 158 129 120 114 115 123 131 123 135 173 134 139 125 228
287 291 280 274 272 274 255 247 213 159 177 179 175 185 177 159 151 147 149 149 155 151 147 146 141 137 140 140 147 166 168 161 150 143 150 159 154 158 160 159 157 148 146 160 148 128 157 153 177
283 276 270 257 253 261 253 243 190 171 164 159 165 165 157 149 145 145 143 140 144 140 142 145 146 142 139 146 161 182 176 163 155 152 152 159 161 167 170 163 155 144 143 147 147 147 154 173 190
247 267 273 247 224 242 247 228 152 127 97 103 131 140 145 146 142 140 143 147 145 144 148 152 151 149 155 173 185 185 177 177 179 170 171 173 170 171 175 169 166 154 153 157 160 158 183 198 207
256 261 269 286 291 302 265 214 118 110 102 87 90 104 124 130 135 138 141 141 142 148 152 157 159 161 164 184 195 185 170 175 179 180 175 178 180 178 174 169 168 168 169 170 159 161 202 192 203
274 272 280 285 284 278 249 146 132 120 111 98 97 102 125 137 133 139 146 145 143 145 146 155 158 160 165 191 203 190 173 180 180 186 184 176 182 179 169 167 172 172 173 176 167 173 200 181 199
265 291 291 271 286 288 281 241 154 132 108 99 111 116 120 135 137 135 140 144 145 145 147 150 154 168 172 186 205 186 184 186 182 187 189 185 183 176 177 178 177 178 179 179 170 170 195 179 181
246 256 270 284 276 277 288 346 61 100 86 91 91 90 128 137 138 136 133 143 139 133 141 155 160 154 167 193 199 169 202 193 173 197 191 176 181 183 186 189 189 187 186 182 174 192 195 187 201
272 271 271 270 281 279 275 276 68 77 64 57 43 78 85 119 127 128 136 141 139 144 161 172 174 168 173 186 194 184 185 189 193 198 194 177 180 184 194 196 192 197 194 188 186 201 199 198 207